Timestamp (UTC),Temp / °C,Chill / °C,HIndex / °C,Humid%,Dewpt / °C,Wind / ms¯¹,HiWind / ms¯¹,Winddir / °,Rain / mm,RainRate / mmhr¯¹,Pressure / hPa,InsideTemp / °C,InsideHumid%,Radiation / Wm¯²,UV
2019-03-07 00:00:00,7.0,6.6,7.0,80.0,3.8,1.4,4.9,244.086645025516,0.0,0.0,970.9,20.5,37.4,0,0
2019-03-07 00:05:00,7.0,6.0,7.0,80.7,3.9,1.9,4.5,230.11724074151,0.0,0.0,970.9,20.6,37.0,0,0
2019-03-07 00:10:00,6.9,5.3,6.9,81.0,3.9,2.6,6.3,229.016684283688,0.0,0.0,970.8,20.6,37.0,0,0
2019-03-07 00:15:00,6.9,5.8,6.9,81.7,4.0,2.0,6.3,232.827775404724,0.0,0.0,970.9,20.6,37.0,0,0
2019-03-07 00:20:00,6.8,5.1,6.8,82.8,4.1,2.7,6.3,227.994442723752,0.0,0.0,971.0,20.6,37.0,0,0
2019-03-07 00:25:00,6.8,5.0,6.8,83.4,4.2,2.8,6.3,231.995245702375,0.0,0.0,971.0,20.6,37.0,0,0
2019-03-07 00:30:00,6.8,5.6,6.8,84.0,4.3,2.1,5.8,232.183635295437,0.0,0.0,971.0,20.6,37.2,0,0
2019-03-07 00:35:00,6.7,5.8,6.7,84.0,4.2,1.9,4.9,238.621464791427,0.0,0.0,971.1,20.7,37.2,0,0
2019-03-07 00:40:00,6.7,5.0,6.7,84.0,4.2,2.7,6.7,230.715262711093,0.0,0.0,971.1,20.7,37.0,0,0
2019-03-07 00:45:00,6.7,5.3,6.7,84.7,4.3,2.2,6.7,233.848635114907,0.0,0.0,971.0,20.7,37.0,0,0
2019-03-07 00:50:00,6.6,5.7,6.6,85.0,4.3,1.8,4.9,220.395960485819,0.0,0.0,971.0,20.6,37.0,0,0
2019-03-07 00:55:00,6.6,5.0,6.6,85.0,4.3,2.4,4.9,230.614798087456,0.0,0.0,971.0,20.6,37.0,0,0
2019-03-07 01:00:00,6.6,5.1,6.6,85.0,4.3,2.3,4.9,232.603739549991,0.2,0.0,971.0,20.7,37.8,0,0
2019-03-07 01:05:00,6.6,5.4,6.6,85.0,4.3,2.1,4.9,228.219596426286,0.0,0.0,971.1,20.8,37.6,0,0
2019-03-07 01:10:00,6.6,4.5,6.6,85.0,4.3,3.1,6.3,220.891260232947,0.0,0.0,971.0,20.8,37.0,0,0
2019-03-07 01:15:00,6.5,4.6,6.5,84.3,4.1,2.9,7.2,227.239314078273,0.0,0.0,971.0,20.8,37.0,0,0
2019-03-07 01:20:00,6.5,4.8,6.5,84.0,4.0,2.5,7.2,244.989712144109,0.0,0.0,971.0,20.7,37.0,0,0
2019-03-07 01:25:00,6.4,4.9,6.4,85.0,4.1,2.4,5.4,232.802791429914,0.0,0.0,970.8,20.6,37.0,0,0
2019-03-07 01:30:00,6.4,4.6,6.4,85.0,4.1,2.8,7.6,227.011819657909,0.0,0.0,970.7,20.6,37.0,0,0
2019-03-07 01:35:00,6.4,4.9,6.4,85.0,4.1,2.4,7.6,231.643351266453,0.0,0.0,970.7,20.5,37.0,0,0
2019-03-07 01:40:00,6.4,4.4,6.4,85.0,4.0,2.9,7.2,228.527490525447,0.0,0.0,970.7,20.5,37.0,0,0
2019-03-07 01:45:00,6.4,5.0,6.4,85.0,4.0,2.3,7.2,225.969283416116,0.0,0.0,970.8,20.5,37.0,0,0
2019-03-07 01:50:00,6.3,4.1,6.3,85.0,4.0,3.2,5.8,227.272415552888,0.0,0.0,970.8,20.5,37.0,0,0
2019-03-07 01:55:00,6.3,4.0,6.3,85.0,4.0,3.3,6.3,227.720126324343,0.0,0.0,970.8,20.5,37.0,0,0
2019-03-07 02:00:00,6.4,4.9,6.4,85.0,4.0,2.2,6.3,230.787682368187,0.0,0.0,970.8,20.5,37.0,0,0
2019-03-07 02:05:00,6.4,5.1,6.4,85.0,4.1,2.1,4.5,229.531329781297,0.0,0.0,970.7,20.5,37.0,0,0
2019-03-07 02:10:00,6.4,5.2,6.4,85.0,4.1,1.9,4.5,226.423789087362,0.0,0.0,970.7,20.5,37.0,0,0
2019-03-07 02:15:00,6.4,5.5,6.4,85.0,4.1,1.7,4.5,223.534475752604,0.0,0.0,970.7,20.6,37.0,0,0
2019-03-07 02:20:00,6.4,4.9,6.4,85.0,4.1,2.4,6.3,221.010382484557,0.0,0.0,970.7,20.7,37.0,0,0
2019-03-07 02:25:00,6.4,4.6,6.4,85.0,4.1,2.7,6.3,231.032493205032,0.0,0.0,970.5,20.7,37.0,0,0
2019-03-07 02:30:00,6.3,4.3,6.3,85.0,4.0,3.0,6.3,228.498434596842,0.0,0.0,970.5,20.6,37.0,0,0
2019-03-07 02:35:00,6.3,4.3,6.3,85.0,3.9,3.0,6.7,230.406642211343,0.0,0.0,970.7,20.5,37.0,0,0
2019-03-07 02:40:00,6.2,4.3,6.2,85.0,3.9,2.8,6.7,223.208037602253,0.0,0.0,970.8,20.5,37.0,0,0
2019-03-07 02:45:00,6.2,5.0,6.2,85.9,4.0,2.0,4.5,220.60549750717,0.2,0.0,970.8,20.6,37.0,0,0
2019-03-07 02:50:00,6.2,4.4,6.2,86.0,4.0,2.6,4.5,233.60435319621,0.0,0.0,970.8,20.6,37.0,0,0
2019-03-07 02:55:00,6.2,5.1,6.2,86.5,4.1,2.1,4.9,225.918767938716,0.0,0.0,970.8,20.6,37.0,0,0
2019-03-07 03:00:00,6.2,5.2,6.2,87.0,4.2,1.9,7.2,224.380531612516,0.0,0.0,970.8,20.7,37.4,0,0
2019-03-07 03:05:00,6.1,5.1,6.1,87.0,4.1,1.8,7.2,230.830558213331,0.0,0.0,970.6,20.7,37.0,0,0
2019-03-07 03:10:00,6.1,4.7,6.1,87.0,4.1,2.2,5.8,229.211774252435,0.0,0.0,970.6,20.8,37.0,0,0
2019-03-07 03:15:00,6.1,3.9,6.1,86.9,4.1,3.2,6.7,231.897042494715,0.2,0.0,970.5,20.8,37.0,0,0
2019-03-07 03:20:00,6.1,4.4,6.1,86.0,3.9,2.5,6.7,229.045294988684,0.0,0.0,970.5,20.7,37.0,0,0
2019-03-07 03:25:00,6.1,4.2,6.1,86.0,4.0,2.8,6.3,227.81991219189,0.0,0.0,970.6,20.7,37.0,0,0
2019-03-07 03:30:00,6.1,3.9,6.1,86.0,4.0,3.3,6.7,227.634433874298,0.0,0.0,970.6,20.7,37.0,0,0
2019-03-07 03:35:00,6.1,4.5,6.1,86.0,3.9,2.4,6.7,229.464174336197,0.0,0.0,970.8,20.7,37.0,0,0
2019-03-07 03:40:00,6.0,4.8,6.0,86.0,3.9,2.1,5.4,217.846946332791,0.0,0.0,970.8,20.7,37.0,0,0
2019-03-07 03:45:00,6.0,4.8,6.0,86.3,3.9,2.0,5.4,216.130307999638,0.0,0.0,970.8,20.7,37.0,0,0
2019-03-07 03:50:00,6.0,5.4,6.0,87.0,4.0,1.5,4.0,234.566611987673,0.0,0.0,970.8,20.8,37.0,0,0
2019-03-07 03:55:00,6.0,4.2,6.0,87.0,4.0,2.6,4.9,228.682307768838,0.0,0.0,970.8,20.9,37.0,0,0
2019-03-07 04:00:00,6.0,4.5,6.0,87.0,4.0,2.2,4.9,214.886581563698,0.0,0.0,970.9,20.9,37.0,0,0
2019-03-07 04:15:00,5.9,3.8,5.9,87.0,3.9,2.9,5.4,225.436028559526,0.0,0.0,970.8,20.8,37.0,0,0
2019-03-07 04:20:00,5.8,4.3,5.8,87.0,3.8,2.3,5.4,227.093250465313,0.0,0.0,970.8,20.7,37.0,0,0
2019-03-07 04:25:00,5.8,4.5,5.8,87.9,4.0,2.1,4.9,226.305547019406,0.0,0.0,970.8,20.8,37.0,0,0
2019-03-07 04:30:00,5.8,4.5,5.8,88.0,4.0,2.1,4.5,210.842949382585,0.0,0.0,970.8,20.8,37.0,0,0
2019-03-07 04:35:00,5.8,4.0,5.8,88.0,3.9,2.5,7.2,211.706607226246,0.2,0.0,970.8,20.8,36.8,0,0
2019-03-07 04:40:00,5.7,3.5,5.7,88.0,3.9,3.0,7.2,223.691197131433,0.0,0.0,970.7,20.8,37.0,0,0
2019-03-07 04:45:00,5.6,3.2,5.6,87.2,3.7,3.3,7.6,227.443727377187,0.0,0.0,970.7,20.8,36.8,0,0
2019-03-07 04:50:00,5.5,3.0,5.5,88.0,3.7,3.5,8.0,224.749758575312,0.0,0.0,970.7,20.6,36.6,0,0
2019-03-07 04:55:00,5.5,3.3,5.5,88.0,3.7,3.0,8.0,223.84489365427,0.2,0.0,970.7,20.5,37.0,0,0
2019-03-07 05:00:00,5.5,4.1,5.5,88.3,3.7,2.0,6.7,226.929129161525,0.0,0.0,970.6,20.4,37.0,0,0
2019-03-07 05:05:00,5.5,3.6,5.5,89.0,3.8,2.6,4.9,224.681365100996,0.0,0.0,970.6,20.5,37.0,0,0
2019-03-07 05:10:00,5.5,3.5,5.5,89.0,3.8,2.7,5.4,220.31789917515,0.0,0.0,970.6,20.5,37.0,0,0
2019-03-07 05:15:00,5.5,3.9,5.5,89.0,3.8,2.3,5.4,222.093049425158,0.0,0.0,970.6,20.5,37.0,0,0
2019-03-07 05:20:00,5.6,3.3,5.6,89.0,3.9,3.0,7.6,220.813231461194,0.0,0.0,970.7,20.5,37.0,0,0
2019-03-07 05:25:00,5.6,3.4,5.6,89.0,3.9,2.9,8.0,225.184492790539,0.0,0.0,970.7,20.4,37.0,0,0
2019-03-07 05:30:00,5.5,3.1,5.5,88.2,3.7,3.4,8.0,226.188283727432,0.0,0.0,970.7,20.3,37.0,0,0
2019-03-07 05:35:00,5.5,3.1,5.5,88.0,3.6,3.2,7.2,227.296760268614,0.0,0.0,970.7,20.3,37.0,0,0
2019-03-07 05:40:00,5.4,2.9,5.4,88.0,3.6,3.5,7.2,226.490458732024,0.2,0.0,970.7,20.2,37.0,0,0
2019-03-07 05:45:00,5.4,2.9,5.4,88.0,3.6,3.3,7.2,222.474682234081,0.0,0.0,970.7,20.1,37.0,0,0
2019-03-07 05:50:00,5.4,3.4,5.4,88.0,3.5,2.9,7.6,220.049907166804,0.0,0.0,970.6,20.1,37.0,0,0
2019-03-07 05:55:00,5.3,3.2,5.3,88.7,3.6,2.9,7.6,229.15706659517,0.0,0.0,970.5,20.1,37.0,0,0
2019-03-07 06:00:00,5.3,3.2,5.3,89.0,3.6,2.9,7.6,228.14258630093,0.0,0.0,970.5,20.1,37.0,0,0
2019-03-07 06:05:00,5.3,3.3,5.3,89.0,3.6,2.6,7.6,224.224224920732,0.0,0.0,970.5,20.2,37.0,0,0
2019-03-07 06:10:00,5.3,3.7,5.3,89.8,3.8,2.4,5.4,221.044993167722,0.0,0.0,970.5,20.1,37.0,0,0
2019-03-07 06:15:00,5.4,3.6,5.4,90.0,3.9,2.4,5.4,223.076157938987,0.0,0.0,970.5,20.1,37.0,0,0
2019-03-07 06:20:00,5.4,3.2,5.4,90.0,3.9,3.0,4.9,220.302784528041,0.0,0.0,970.4,20.1,37.0,0,0
2019-03-07 06:25:00,5.5,3.5,5.5,90.0,4.0,2.6,5.4,220.670170734299,0.2,0.0,970.5,20.0,37.0,0,0
2019-03-07 06:30:00,5.5,3.1,5.5,90.0,4.0,3.4,6.3,229.301255433453,0.0,0.0,970.5,20.0,37.0,0,0
2019-03-07 06:35:00,5.6,2.9,5.6,90.0,4.1,3.8,8.5,227.384792050825,0.0,0.0,970.5,19.9,37.0,0,0
2019-03-07 06:40:00,5.6,3.3,5.6,90.0,4.1,3.1,8.5,224.757454554213,0.0,0.0,970.4,19.7,37.0,0,0
2019-03-07 06:45:00,5.6,3.2,5.6,90.0,4.1,3.4,8.0,225.400138280923,0.0,0.0,970.4,19.6,37.0,0,0
2019-03-07 06:50:00,5.7,3.4,5.7,90.0,4.2,3.2,8.0,221.851521841912,0.0,0.0,970.4,19.5,38.0,4.24832214765101,0
2019-03-07 06:55:00,5.7,3.0,5.7,90.0,4.2,3.7,7.6,226.818702560753,0.0,0.0,970.5,19.4,38.0,11.3154362416107,0
2019-03-07 07:00:00,5.7,3.3,5.7,89.3,4.1,3.3,7.6,230.382417637403,0.0,0.0,970.4,19.4,38.0,17.0671140939597,0
2019-03-07 07:05:00,5.7,2.8,5.7,89.9,4.1,4.1,7.6,227.137559006911,0.0,0.0,970.5,19.3,38.0,20.1409395973154,0
2019-03-07 07:10:00,5.7,2.8,5.7,89.0,4.0,4.1,9.8,232.663074757933,0.0,0.0,970.5,19.2,38.0,16.7785234899329,0
2019-03-07 07:15:00,5.7,3.2,5.7,88.8,4.0,3.7,9.8,222.004967600067,0.0,0.0,970.5,19.0,38.0,17.8053691275168,0
2019-03-07 07:20:00,5.7,3.2,5.7,88.3,3.9,3.4,9.4,224.15845924759,0.0,0.0,970.5,18.9,38.0,26.6733333333333,0
2019-03-07 07:25:00,5.7,3.3,5.7,88.0,3.9,3.4,7.2,226.075182964134,0.0,0.0,970.5,18.9,38.0,34.0529801324503,0
2019-03-07 07:30:00,5.8,3.3,5.8,88.5,4.0,3.5,8.5,227.3564627062,0.0,0.0,970.6,18.9,38.0,33.1986754966887,0
2019-03-07 07:35:00,5.8,3.1,5.8,89.0,4.1,3.7,8.5,223.865882767268,0.0,0.0,970.6,18.9,39.0,31.9328859060403,0
2019-03-07 07:40:00,5.8,4.2,5.8,89.0,4.1,2.3,6.7,223.875699927667,0.0,0.0,970.6,18.9,39.0,34.1543624161074,0
2019-03-07 07:45:00,5.8,3.3,5.8,89.0,4.2,3.5,7.2,223.462239979788,0.0,0.0,970.6,18.9,39.0,32.2147651006711,0
2019-03-07 07:50:00,5.9,3.2,5.9,88.4,4.1,3.8,8.0,225.111030031244,0.0,0.0,970.6,18.9,38.8,28.6577181208054,0
2019-03-07 07:55:00,5.9,3.5,5.9,88.0,4.1,3.4,8.0,225.153183981163,0.0,0.0,970.7,18.9,39.0,28.6040268456376,0
2019-03-07 08:00:00,5.9,3.0,5.9,88.0,4.1,4.4,9.4,227.296400428598,0.0,0.0,970.7,18.8,39.0,26.8859060402685,0
2019-03-07 08:05:00,5.9,3.1,5.9,88.0,4.1,4.3,9.4,228.777451891567,0.0,0.0,970.8,18.8,39.0,39.2348993288591,0
2019-03-07 08:10:00,5.9,3.5,5.9,88.0,4.1,3.6,8.5,229.343263409298,0.0,0.0,970.8,18.8,39.0,45.635761589404,0
2019-03-07 08:15:00,5.9,3.4,5.9,88.0,4.1,3.6,7.6,225.14671522186,0.0,0.0,970.8,18.7,39.0,45.9060402684564,0
2019-03-07 08:20:00,6.0,3.5,6.0,88.0,4.2,3.6,7.6,225.630147182258,0.0,0.0,970.8,18.7,39.0,44.6912751677852,0
2019-03-07 08:25:00,6.0,3.5,6.0,88.0,4.2,3.6,8.0,229.234902683553,0.0,0.0,970.7,18.7,39.0,52.8066666666667,0
2019-03-07 08:30:00,6.0,3.4,6.0,88.0,4.2,3.6,8.9,220.945335280366,0.0,0.0,970.7,18.8,39.0,73.9,0.158666666666667
2019-03-07 08:35:00,6.0,3.1,6.0,88.0,4.2,4.3,8.9,218.777568565685,0.0,0.0,970.8,18.9,39.0,86.5364238410596,0.23841059602649
2019-03-07 08:40:00,6.0,3.5,6.0,87.1,4.0,3.5,7.6,230.58958650508,0.0,0.0,970.8,18.9,39.0,95.8053691275168,0.256375838926174
2019-03-07 08:45:00,6.0,3.1,6.0,87.0,4.0,4.4,9.4,227.647530997388,0.0,0.0,970.8,18.8,39.0,88.4832214765101,0.236912751677852
2019-03-07 08:50:00,6.1,3.4,6.1,87.1,4.1,3.8,9.4,223.124290969761,0.0,0.0,970.8,18.8,39.0,63.66,0.190666666666667
2019-03-07 08:55:00,6.1,3.4,6.1,88.0,4.2,3.8,9.4,217.820176956562,0.0,0.0,970.8,18.9,39.0,48.5436241610738,0
2019-03-07 09:00:00,6.1,3.5,6.1,88.0,4.2,3.6,8.0,223.521715536393,0.2,0.0,970.8,19.0,39.0,47.8389261744966,0
2019-03-07 09:05:00,6.1,3.4,6.1,88.0,4.2,4.0,8.0,229.879887823429,0.0,0.0,970.8,19.0,39.0,55.3066666666667,0.308
2019-03-07 09:10:00,6.0,3.2,6.0,88.0,4.2,4.1,8.5,226.920681393499,0.0,0.0,970.9,19.0,39.0,60.46,0.276666666666667
2019-03-07 09:15:00,6.0,3.9,6.0,88.0,4.2,3.1,8.5,222.755630709476,0.0,0.0,970.9,19.0,39.0,55.2147651006711,0.128187919463087
2019-03-07 09:20:00,6.1,3.7,6.1,88.0,4.2,3.4,7.6,228.734571007891,0.0,0.0,970.9,19.0,39.0,49.8255033557047,0
2019-03-07 09:25:00,6.1,3.3,6.1,88.0,4.2,3.9,7.6,224.124137526537,0.0,0.0,970.9,19.1,39.0,55.22,0.250666666666667
2019-03-07 09:30:00,6.1,3.2,6.1,88.3,4.3,4.2,8.0,229.921947693015,0.0,0.0,970.9,19.1,39.0,66.1466666666667,0.549333333333334
2019-03-07 09:35:00,6.0,3.7,6.0,88.7,4.3,3.4,8.0,227.767446176976,0.0,0.0,970.9,19.2,39.0,63.1066666666667,0.599333333333334
2019-03-07 09:40:00,6.0,3.4,6.0,88.3,4.3,3.7,7.6,224.75767894035,0.0,0.0,971.0,19.2,39.0,67.7466666666667,0.623333333333333
2019-03-07 09:45:00,6.0,3.6,6.0,88.5,4.3,3.4,8.0,221.90281879511,0.0,0.0,971.0,19.3,39.0,65.5234899328859,0.55973154362416
2019-03-07 09:50:00,6.1,3.6,6.1,88.3,4.3,3.6,8.0,229.830022897164,0.0,0.0,971.0,19.3,39.0,58.8724832214765,0.633557046979866
2019-03-07 09:55:00,6.1,3.3,6.1,88.0,4.2,4.0,8.9,224.098185987567,0.0,0.0,971.0,19.3,39.0,60.4563758389262,0.511409395973155
2019-03-07 10:00:00,6.0,3.9,6.0,88.0,4.2,3.1,8.9,225.427200395023,0.0,0.0,971.0,19.3,38.6,80.255033557047,0.71476510067114
2019-03-07 10:05:00,6.1,3.8,6.1,88.0,4.2,3.3,7.2,223.413744444344,0.0,0.0,971.0,19.3,39.0,100.366666666667,0.650666666666666
2019-03-07 10:10:00,6.1,3.7,6.1,88.0,4.3,3.6,7.6,228.933102162509,0.0,0.0,971.0,19.4,38.2,106.373333333333,0.770666666666664
2019-03-07 10:15:00,6.2,3.7,6.2,88.0,4.3,3.6,7.6,226.761252020376,0.0,0.0,971.0,19.4,38.4,97.8523489932886,0.649664429530201
2019-03-07 10:20:00,6.2,3.4,6.2,88.0,4.3,4.0,7.6,226.066788477642,0.0,0.0,971.0,19.4,38.6,87.4429530201342,0.661073825503357
2019-03-07 10:25:00,6.2,3.8,6.2,87.3,4.2,3.3,7.2,223.106597838939,0.2,0.0,971.0,19.4,38.2,90.1476510067114,0.653691275167786
2019-03-07 10:30:00,6.2,3.9,6.2,87.7,4.3,3.3,8.5,225.74453893736,0.0,0.0,971.0,19.4,38.4,76.7852348993289,0.626845637583894
2019-03-07 10:35:00,6.2,4.4,6.2,88.0,4.4,2.6,8.5,226.251173590691,0.0,0.0,971.0,19.4,38.8,71.9328859060403,0.701342281879195
2019-03-07 10:40:00,6.2,4.5,6.2,88.0,4.4,2.7,6.7,227.245317402738,0.0,0.0,971.0,19.6,38.6,65.8733333333333,0.684666666666665
2019-03-07 10:45:00,6.3,4.7,6.3,88.0,4.4,2.4,6.7,224.281072596638,0.0,0.0,971.0,19.7,38.4,67.7933333333333,0.569333333333333
2019-03-07 10:50:00,6.3,4.3,6.3,88.0,4.4,2.8,6.3,228.091305923859,0.0,0.0,971.0,19.7,38.0,67.8079470198676,0.639072847682119
2019-03-07 10:55:00,6.3,4.3,6.3,88.2,4.5,2.8,6.3,221.273761656502,0.2,0.0,971.0,19.8,38.0,77.3087248322148,0.750335570469798
2019-03-07 11:00:00,6.3,4.2,6.3,89.0,4.7,3.1,6.3,224.277841022329,0.0,0.0,971.1,19.9,38.0,65.3489932885906,0.911409395973156
2019-03-07 11:05:00,6.3,4.3,6.3,89.1,4.7,3.0,6.3,221.554814474963,0.2,0.7,971.0,19.9,38.0,70.0066666666667,0.779333333333333
2019-03-07 11:10:00,6.3,4.4,6.3,90.0,4.8,2.9,5.8,222.894064848501,0.2,1.2,971.1,19.9,38.0,79.1610738255034,0.771812080536911
2019-03-07 11:15:00,6.4,5.1,6.4,90.0,4.8,2.1,5.8,219.795063968253,0.0,1.6,971.1,19.9,38.4,72.7315436241611,0.883221476510068
2019-03-07 11:20:00,6.4,5.5,6.4,90.0,4.9,1.8,5.4,216.626844440001,0.2,1.6,971.1,20.0,39.0,71.2281879194631,0.924832214765099
2019-03-07 11:25:00,6.4,4.9,6.4,90.0,4.9,2.4,6.7,220.230126421035,0.2,1.9,971.1,20.0,39.0,64.0604026845638,0.910738255033558
2019-03-07 11:30:00,6.5,5.2,6.5,90.0,5.0,2.2,6.7,233.594795037071,0.0,2.1,971.2,20.0,38.4,50.8187919463087,0.193959731543624
2019-03-07 11:35:00,6.5,5.1,6.5,90.0,5.0,2.3,6.3,221.209839400179,0.0,1.3,971.2,20.0,39.0,46.4295302013423,0
2019-03-07 11:40:00,6.6,5.2,6.6,90.0,5.1,2.2,6.3,248.760134273024,0.2,1.0,971.3,20.0,38.2,48.9463087248322,0
2019-03-07 11:45:00,6.7,5.0,6.7,90.0,5.2,2.7,7.6,254.361114034165,0.0,1.0,971.3,19.9,38.2,55.1006711409396,0.516778523489933
2019-03-07 11:50:00,6.7,4.7,6.7,89.1,5.0,3.3,7.6,263.455176751362,0.0,1.0,971.5,19.8,38.0,57.4666666666667,0.583333333333334
2019-03-07 11:55:00,6.8,5.7,6.8,88.4,5.0,2.0,7.6,260.239174100757,0.0,0.5,971.5,19.5,38.6,58.3221476510067,0.853020134228186
2019-03-07 12:00:00,6.8,5.8,6.8,88.0,5.0,2.0,5.4,278.072430329381,0.0,0.0,971.7,19.3,39.0,70.158940397351,0.944370860927153
2019-03-07 12:05:00,6.8,5.7,6.8,88.0,5.0,2.0,5.4,276.278871470968,0.0,0.0,971.8,19.2,39.2,76.2617449664429,1.05838926174496
2019-03-07 12:10:00,6.9,5.1,6.9,87.2,4.9,2.7,6.3,274.572195153737,0.0,0.0,971.8,19.3,40.0,77.013422818792,1.16510067114094
2019-03-07 12:15:00,6.9,5.1,6.9,87.0,4.9,2.8,6.3,278.519373048166,0.0,0.0,972.1,19.6,40.4,80.0536912751678,1.1496644295302
2019-03-07 12:20:00,6.9,5.6,6.9,87.0,4.9,2.2,5.8,276.380226369065,0.0,0.0,972.2,19.9,41.0,92.5838926174497,1.14496644295302
2019-03-07 12:25:00,6.9,5.8,6.9,87.0,4.9,2.0,4.9,277.734580049787,0.0,0.0,972.3,20.2,40.2,126.919463087248,1.24496644295302
2019-03-07 12:30:00,7.0,5.6,7.0,87.0,5.0,2.4,5.8,276.778911712898,0.0,0.0,972.3,20.5,40.0,134.226666666667,1.256
2019-03-07 12:35:00,7.1,5.3,7.1,86.8,5.0,3.0,8.0,290.71648820902,0.0,0.0,972.4,20.8,40.0,202.724832214765,1.38120805369128
2019-03-07 12:40:00,7.1,4.7,7.1,86.1,5.0,3.9,8.5,276.849867233913,0.0,0.0,972.5,20.9,40.0,175.724832214765,1.18389261744966
2019-03-07 12:45:00,7.2,5.2,7.2,86.0,5.0,3.2,8.5,278.854371375581,0.0,0.0,972.5,21.1,39.0,109.718120805369,1.02080536912752
2019-03-07 12:50:00,7.2,5.2,7.2,86.0,5.0,3.3,7.2,281.330847099579,0.0,0.0,972.6,21.2,39.0,93.8053691275168,1.02348993288591
2019-03-07 12:55:00,7.2,5.6,7.2,86.0,5.0,2.6,7.2,285.426904049096,0.0,0.0,972.6,21.3,39.0,151.913333333333,1.204
2019-03-07 13:00:00,7.3,5.7,7.3,86.0,5.1,2.6,6.3,295.732014130928,0.0,0.0,972.6,21.4,39.0,217.373333333333,1.68133333333333
2019-03-07 13:05:00,7.4,6.0,7.4,86.0,5.2,2.3,5.4,297.084628771342,0.0,0.0,972.7,21.5,39.0,346.026666666667,1.788
2019-03-07 13:10:00,7.6,6.2,7.6,87.0,5.6,2.4,4.9,284.775101551744,0.0,0.0,972.8,21.6,39.0,527.436241610738,1.83892617449664
2019-03-07 13:15:00,7.9,6.4,7.9,86.0,5.7,2.7,4.9,278.248817428726,0.0,0.0,972.8,21.7,39.0,307.771812080537,1.43355704697987
2019-03-07 13:20:00,8.1,6.7,8.1,84.5,5.7,2.7,6.7,288.171254909892,0.0,0.0,973.0,21.8,39.0,140.859060402685,0.980536912751678
2019-03-07 13:25:00,8.2,6.6,8.2,84.2,5.7,2.9,7.2,291.217763365009,0.0,0.0,973.2,21.9,39.0,90.751677852349,0.812080536912753
2019-03-07 13:30:00,8.1,6.3,8.1,84.0,5.6,3.2,7.2,290.961497900666,0.0,0.0,973.3,22.0,39.0,82.4093959731544,0.766442953020134
2019-03-07 13:35:00,8.0,6.9,8.0,84.0,5.5,2.2,7.2,287.558534448798,0.0,0.0,973.3,22.0,39.0,125.657718120805,0.876510067114094
2019-03-07 13:40:00,8.0,7.3,8.0,84.0,5.5,1.7,4.9,300.906419334862,0.0,0.0,973.4,22.1,39.0,195.651006711409,1.17919463087248
2019-03-07 13:45:00,8.1,6.4,8.1,84.0,5.5,2.8,5.4,284.735368442314,0.0,0.0,973.5,22.2,39.0,190.51677852349,1.13154362416107
2019-03-07 13:50:00,8.1,6.7,8.1,84.0,5.5,2.6,5.8,284.277829384905,0.0,0.0,973.7,22.3,39.0,196.228187919463,1.14228187919463
2019-03-07 13:55:00,8.1,6.6,8.1,83.2,5.5,2.6,6.3,300.748146085891,0.0,0.0,973.8,22.4,39.0,160.510067114094,1.02818791946309
2019-03-07 14:00:00,8.2,6.6,8.2,83.0,5.5,2.8,6.7,291.65828150515,0.0,0.0,973.9,22.4,39.0,153.973154362416,0.965100671140943
2019-03-07 14:05:00,8.2,7.1,8.2,83.0,5.5,2.2,6.7,288.559942979717,0.0,0.0,974.1,22.6,39.0,109.04,0.834666666666666
2019-03-07 14:10:00,8.2,6.1,8.2,83.0,5.5,3.6,8.0,279.496160202507,0.0,0.0,974.2,22.6,38.6,68.4133333333333,0.49
2019-03-07 14:15:00,8.1,6.3,8.1,83.2,5.4,3.2,8.5,286.246546719636,0.0,0.0,974.3,22.5,38.0,74.7466666666667,0.606666666666666
2019-03-07 14:20:00,8.1,7.0,8.1,84.0,5.5,2.1,8.5,278.697853937435,0.0,0.0,974.4,22.4,38.0,95.682119205298,0.773509933774834
2019-03-07 14:25:00,8.1,6.3,8.1,84.0,5.5,3.1,7.2,298.095814713836,0.0,0.0,974.6,22.5,38.0,94.7315436241611,0.782550335570471
2019-03-07 14:30:00,8.1,6.0,8.1,84.0,5.5,3.6,8.5,293.936493267974,0.0,0.0,974.7,22.5,38.0,89.8523489932886,0.762416107382551
2019-03-07 14:35:00,8.1,6.7,8.1,84.5,5.7,2.6,8.5,286.98653304258,0.0,0.0,974.9,22.4,38.0,94.6912751677852,0.785906040268455
2019-03-07 14:40:00,8.1,6.7,8.1,85.0,5.8,2.5,4.9,290.474691537707,0.0,0.0,975.1,22.4,38.0,90.1208053691275,0.683221476510068
2019-03-07 14:45:00,8.1,6.3,8.1,85.9,5.9,3.1,8.0,295.338549238128,0.0,0.0,975.3,22.4,38.0,87.1409395973154,0.666442953020134
2019-03-07 14:50:00,8.0,6.5,8.0,86.0,5.8,2.8,8.0,285.905283224108,0.0,0.0,975.5,22.4,38.0,82.8322147651007,0.62214765100671
2019-03-07 14:55:00,7.9,6.6,7.9,86.0,5.8,2.5,6.7,293.634173117939,0.0,0.0,975.6,22.4,38.0,81.4563758389262,0.651006711409396
2019-03-07 15:00:00,7.9,6.1,7.9,86.0,5.7,3.2,6.3,295.43356023821,0.0,0.0,975.8,22.4,38.0,91.8053691275168,0.63489932885906
2019-03-07 15:05:00,7.9,6.1,7.9,85.0,5.5,3.0,6.3,298.543485921597,0.0,0.0,976.0,22.4,38.0,99.0536912751678,0.685906040268458
2019-03-07 15:10:00,7.9,5.8,7.9,85.3,5.6,3.6,7.6,294.430263383742,0.0,0.0,976.1,22.6,38.0,104.671140939597,0.669127516778525
2019-03-07 15:15:00,7.9,6.5,7.9,86.0,5.7,2.7,7.6,293.118736227831,0.0,0.0,976.3,22.6,38.0,112.691275167785,0.705369127516779
2019-03-07 15:20:00,7.9,6.0,7.9,86.0,5.7,3.2,6.7,294.496552390278,0.0,0.0,976.5,22.6,38.0,84.98,0.631999999999999
2019-03-07 15:25:00,7.9,6.9,7.9,86.0,5.7,2.1,6.7,294.110105339485,0.0,0.0,976.6,22.6,38.0,92.9466666666667,0.634666666666666
2019-03-07 15:30:00,8.0,7.1,8.0,86.5,5.8,1.9,5.4,299.823405447246,0.0,0.0,976.8,22.6,38.0,89.7248322147651,0.676510067114094
2019-03-07 15:35:00,8.0,6.1,8.0,86.5,5.9,3.2,7.2,286.448251719675,0.0,0.0,977.0,22.6,38.0,55.7382550335571,0.232885906040269
2019-03-07 15:40:00,7.9,6.6,7.9,86.0,5.7,2.4,7.2,294.696783391211,0.0,0.0,977.2,22.6,38.0,80.5369127516778,0.753691275167783
2019-03-07 15:45:00,7.9,6.9,7.9,86.0,5.7,2.1,5.4,305.594967005307,0.0,0.0,977.3,22.6,38.0,72.7718120805369,0.663087248322148
2019-03-07 15:50:00,7.9,6.5,7.9,86.0,5.7,2.6,6.3,308.091441793289,0.0,0.0,977.5,22.6,38.0,73.6979865771812,0.734228187919464
2019-03-07 15:55:00,7.9,6.2,7.9,85.3,5.6,3.0,7.6,309.21668479963,0.0,0.0,977.6,22.6,38.0,47.3933333333333,0.14
2019-03-07 16:00:00,7.9,6.1,7.9,85.0,5.5,3.0,7.6,295.474162116155,0.0,0.0,977.8,22.5,38.0,37.6845637583893,0
2019-03-07 16:05:00,7.9,6.6,7.9,85.0,5.5,2.4,6.3,314.403051820192,0.2,0.0,978.0,22.4,38.0,41.0536912751678,0
2019-03-07 16:10:00,7.9,5.9,7.9,84.7,5.5,3.3,7.2,300.553694336853,0.0,0.0,978.2,22.4,38.0,53.1543624161074,0.0402684563758389
2019-03-07 16:15:00,7.9,6.3,7.9,84.0,5.4,2.9,7.2,299.564796423144,0.0,0.0,978.4,22.6,38.0,61.4026845637584,0.616107382550336
2019-03-07 16:20:00,7.9,6.3,7.9,83.6,5.3,2.9,6.7,308.179728147243,0.0,0.0,978.6,22.6,38.0,48.0469798657718,0
2019-03-07 16:25:00,7.9,6.4,7.9,83.2,5.3,2.7,6.7,309.109404980029,0.0,0.0,978.8,22.7,38.0,57.5302013422819,0.355704697986577
2019-03-07 16:30:00,8.0,6.5,8.0,83.6,5.4,2.8,6.3,302.411761866376,0.0,0.0,979.0,22.7,38.0,39.1466666666667,0
2019-03-07 16:35:00,8.0,6.8,8.0,84.0,5.4,2.3,6.3,310.770354177473,0.0,0.0,979.1,22.8,38.0,48.9328859060403,0
2019-03-07 16:40:00,7.9,5.9,7.9,83.8,5.4,3.4,6.7,305.893441425616,0.0,0.0,979.3,22.8,38.0,48.3489932885906,0
2019-03-07 16:45:00,7.9,6.5,7.9,83.0,5.2,2.7,8.0,305.980763831206,0.0,0.0,979.5,22.8,38.0,38.1812080536913,0
2019-03-07 16:50:00,7.8,6.6,7.8,83.0,5.1,2.4,8.0,300.830962077134,0.0,0.0,979.6,22.8,38.0,29.3624161073825,0
2019-03-07 16:55:00,7.8,6.1,7.8,83.0,5.1,3.0,8.0,300.741588319704,0.0,0.0,979.6,22.8,38.0,31.4429530201342,0
2019-03-07 17:00:00,7.8,6.0,7.8,83.0,5.1,3.1,8.0,314.167685803047,0.0,0.0,979.9,22.8,38.0,27.0805369127517,0
2019-03-07 17:05:00,7.7,5.9,7.7,83.0,5.0,3.3,8.5,305.432051060592,0.0,0.0,980.2,22.8,38.0,21.3892617449664,0
2019-03-07 17:10:00,7.7,6.4,7.7,82.4,4.9,2.2,8.5,311.771443781115,0.0,0.0,980.3,22.8,38.0,16.6912751677852,0
2019-03-07 17:15:00,7.7,6.0,7.7,82.7,5.0,2.9,6.3,302.648529640886,0.0,0.0,980.6,22.8,38.0,9.04026845637584,0
2019-03-07 17:20:00,7.7,5.1,7.7,82.0,4.8,4.3,7.6,318.39218585701,0.0,0.0,980.8,22.8,38.0,0.369127516778524,0
2019-03-07 17:25:00,7.5,5.9,7.5,82.5,4.7,2.7,7.6,325.281323712445,0.2,0.0,981.0,22.8,38.0,4.43624161073826,0
2019-03-07 17:30:00,7.4,6.4,7.4,83.9,4.9,2.0,6.3,301.962281839639,0.0,0.0,981.1,22.8,38.0,3.77852348993289,0
2019-03-07 17:35:00,7.3,5.5,7.3,84.8,4.9,2.9,6.7,307.404222655933,0.0,0.0,981.3,22.8,38.0,0,0
2019-03-07 17:40:00,7.3,5.5,7.3,85.0,4.9,2.9,6.7,305.652854029756,0.0,0.0,981.4,22.8,38.0,0,0
2019-03-07 17:45:00,7.2,5.9,7.2,85.0,4.9,2.3,5.4,319.143433168901,0.0,0.0,981.5,22.8,38.0,0,0
2019-03-07 17:50:00,7.3,5.4,7.3,85.0,4.9,3.0,6.7,298.625705884826,0.0,0.0,981.7,22.8,38.0,0,0
2019-03-07 17:55:00,7.3,5.7,7.3,84.2,4.8,2.6,6.7,310.240180722774,0.0,0.0,981.9,22.8,38.0,0,0
2019-03-07 18:00:00,7.3,6.1,7.3,84.0,4.8,2.1,6.7,325.165706129017,0.0,0.0,982.1,22.8,38.0,0,0
2019-03-07 18:05:00,7.3,6.2,7.3,84.0,4.8,2.0,4.5,311.371079257118,0.0,0.0,982.4,22.8,38.0,0,0
2019-03-07 18:10:00,7.3,6.5,7.3,84.0,4.8,1.8,4.5,310.774017716557,0.0,0.0,982.6,22.9,38.0,0,0